Tracking 28799 objects as of 18-Apr-2024
HD Live streaming from Space Station
objects crossing your sky now

ATLAS D R/B

Track ATLAS D R/B now!
10-day predictions


NORAD ID: 1616
Int'l Code: 1965-078B
Perigee: 402.7 km
Apogee: 1,968.3 km
Inclination: 144.2 °
Period: 109.0 minutes
Semi major axis: 7556 km
RCS: 1.0054 m2 (large)
Launch date: October 5, 1965
Source: United States (US)
Launch site: AIR FORCE WESTERN TEST RANGE (AFWTR)

Note: This is a ROCKET BODY
Your satellite tracking list
Your tracking list is empty




NASA's NSSDC Master Catalog

Two Line Element Set (TLE):
1 01616U 65078B   24108.17579004  .00015534  00000-0  14540-2 0  9992
2 01616 144.2329 195.1849 1035937  23.5111 340.9770 13.21669445645296
Source of the keplerian elements: AFSPC